BAW273 EGLL-KSAN

Flight info

Callsign BAW273
Flight time N/A
Altitude 40000
Route CPT L9 BIBPE DCT BUCGO DCT FELCA DCT NICXI DCT BAKUR DCT RESNO/M083F400 DCT 56N020W 57N030W 57N040W 56N050W DCT JANJO/N0470F400 DCT HENDY DCT YSP DCT DLH DCT HON DCT BFF J157 LAR DCT JNC DCT EED BARET5
Aircraft B772/H-SDE2E3FGHIJ5LORVWXY/LB1D1

Departure

Time N/A
Airport London Heathrow Airport (EGLL)

Arrival

Time 2026-04-26 22:50
Airport San Diego International Airport (KSAN)
Time Latitude Longitude Altitude Speed Heading
2026-04-26 22:26 34.12442 -115.23247 36572 ft 384 kts 217°
2026-04-26 22:26 34.07931 -115.26673 36579 ft 387 kts 223°
2026-04-26 22:27 34.03777 -115.30558 36294 ft 382 kts 226°
2026-04-26 22:27 34.01742 -115.32605 35676 ft 378 kts 226°
2026-04-26 22:27 33.99866 -115.34718 35145 ft 373 kts 231°
2026-04-26 22:28 33.97999 -115.37038 34507 ft 372 kts 231°
2026-04-26 22:28 33.95030 -115.40739 33456 ft 373 kts 231°
2026-04-26 22:28 33.91868 -115.44681 32344 ft 391 kts 231°
2026-04-26 22:28 33.88618 -115.48732 31214 ft 417 kts 231°
2026-04-26 22:29 33.85803 -115.52228 30383 ft 415 kts 231°
2026-04-26 22:29 33.82944 -115.55773 29820 ft 419 kts 231°
2026-04-26 22:29 33.79436 -115.60124 29315 ft 429 kts 231°
2026-04-26 22:29 33.75796 -115.64624 29293 ft 427 kts 230°
2026-04-26 22:30 33.69378 -115.72541 29293 ft 422 kts 230°
2026-04-26 22:30 33.62815 -115.80609 29308 ft 411 kts 231°
2026-04-26 22:31 33.56453 -115.89552 29330 ft 397 kts 236°
2026-04-26 22:31 33.51247 -115.97530 29302 ft 390 kts 236°
2026-04-26 22:32 33.47468 -116.02245 29209 ft 391 kts 230°
2026-04-26 22:32 33.45511 -116.04523 29076 ft 391 kts 230°
2026-04-26 22:32 33.43564 -116.06789 28591 ft 394 kts 229°
2026-04-26 22:33 33.41599 -116.09074 28098 ft 396 kts 229°
2026-04-26 22:33 33.37614 -116.13703 27075 ft 400 kts 230°
2026-04-26 22:33 33.35624 -116.16010 26574 ft 402 kts 229°
2026-04-26 22:34 33.33618 -116.18332 26011 ft 406 kts 229°
2026-04-26 22:34 33.31569 -116.20702 25549 ft 407 kts 229°
2026-04-26 22:34 33.29572 -116.23007 25432 ft 400 kts 229°
2026-04-26 22:34 33.27578 -116.25307 25316 ft 393 kts 229°
2026-04-26 22:35 33.25671 -116.27498 25190 ft 368 kts 229°
2026-04-26 22:35 33.23840 -116.29603 24593 ft 359 kts 229°
2026-04-26 22:35 33.22057 -116.31656 23792 ft 354 kts 229°
2026-04-26 22:35 33.20318 -116.33659 23043 ft 349 kts 229°
2026-04-26 22:36 33.18575 -116.35664 22208 ft 347 kts 229°
2026-04-26 22:36 33.16849 -116.37650 21357 ft 346 kts 229°
2026-04-26 22:36 33.15112 -116.39647 20499 ft 345 kts 229°
2026-04-26 22:36 33.13411 -116.41603 19666 ft 344 kts 229°
2026-04-26 22:37 33.11682 -116.43590 18811 ft 343 kts 228°
2026-04-26 22:37 33.09964 -116.45562 17973 ft 343 kts 228°
2026-04-26 22:37 33.08255 -116.47524 17021 ft 346 kts 228°
2026-04-26 22:37 33.06524 -116.49513 16029 ft 350 kts 228°
2026-04-26 22:38 33.04756 -116.51541 15031 ft 352 kts 228°
2026-04-26 22:38 33.02991 -116.53564 14036 ft 355 kts 228°
2026-04-26 22:38 33.01227 -116.55583 13051 ft 356 kts 228°
2026-04-26 22:38 32.99445 -116.57622 12057 ft 357 kts 228°
2026-04-26 22:39 32.97653 -116.59671 11123 ft 355 kts 228°
2026-04-26 22:39 32.95899 -116.61661 10602 ft 342 kts 226°
2026-04-26 22:39 32.93913 -116.63173 10258 ft 335 kts 207°
2026-04-26 22:39 32.91733 -116.64017 10056 ft 321 kts 200°
2026-04-26 22:40 32.89616 -116.64645 9859 ft 305 kts 199°
2026-04-26 22:40 32.87595 -116.65185 9680 ft 290 kts 198°
2026-04-26 22:40 32.85661 -116.65681 9366 ft 282 kts 198°
2026-04-26 22:40 32.83733 -116.66168 8915 ft 279 kts 197°
2026-04-26 22:41 32.81858 -116.66638 8408 ft 278 kts 197°
2026-04-26 22:41 32.79969 -116.67110 7884 ft 277 kts 196°
2026-04-26 22:41 32.78143 -116.67783 7366 ft 270 kts 215°
2026-04-26 22:41 32.76770 -116.69221 6961 ft 257 kts 235°
2026-04-26 22:42 32.75727 -116.70921 6701 ft 253 kts 238°
2026-04-26 22:42 32.74771 -116.72634 6451 ft 250 kts 239°
2026-04-26 22:42 32.73823 -116.74377 6139 ft 250 kts 239°
2026-04-26 22:42 32.72879 -116.76120 5843 ft 249 kts 240°
2026-04-26 22:43 32.72027 -116.77879 5566 ft 247 kts 245°
2026-04-26 22:43 32.71251 -116.79707 5243 ft 247 kts 248°
2026-04-26 22:43 32.70608 -116.81578 4997 ft 243 kts 252°
2026-04-26 22:43 32.70060 -116.83464 4966 ft 243 kts 253°
2026-04-26 22:44 32.69513 -116.85384 4962 ft 246 kts 253°
2026-04-26 22:44 32.69122 -116.87333 4967 ft 244 kts 263°
2026-04-26 22:44 32.68870 -116.89327 4962 ft 245 kts 263°
2026-04-26 22:44 32.68618 -116.91309 4891 ft 236 kts 261°
2026-04-26 22:45 32.68262 -116.93177 4621 ft 230 kts 257°
2026-04-26 22:45 32.67954 -116.95025 4164 ft 225 kts 267°
2026-04-26 22:45 32.68025 -116.96842 3676 ft 220 kts 279°
2026-04-26 22:45 32.68347 -116.98587 3200 ft 217 kts 285°
2026-04-26 22:46 32.68759 -117.00304 2754 ft 216 kts 287°
2026-04-26 22:46 32.69192 -117.02021 2251 ft 220 kts 286°
2026-04-26 22:46 32.69625 -117.03750 1984 ft 211 kts 286°
2026-04-26 22:46 32.70020 -117.05341 1949 ft 188 kts 286°
2026-04-26 22:47 32.70364 -117.06730 1959 ft 166 kts 286°
2026-04-26 22:47 32.70681 -117.08025 1960 ft 162 kts 286°
2026-04-26 22:47 32.70993 -117.09300 1959 ft 160 kts 286°
2026-04-26 22:47 32.71302 -117.10567 1793 ft 155 kts 286°
2026-04-26 22:48 32.71587 -117.11744 1457 ft 141 kts 288°
2026-04-26 22:48 32.71885 -117.12804 1115 ft 134 kts 287°
2026-04-26 22:48 32.72128 -117.13873 808 ft 132 kts 283°
2026-04-26 22:48 32.72351 -117.14941 624 ft 134 kts 287°
2026-04-26 22:49 32.72631 -117.15993 474 ft 136 kts 287°
2026-04-26 22:49 32.72900 -117.17069 270 ft 137 kts 285°
2026-04-26 22:49 32.73154 -117.18130 54 ft 127 kts 287°
2026-04-26 22:49 32.73362 -117.18984 34 ft 58 kts 285°
2026-04-26 22:50 32.73353 -117.19145 34 ft 0 kts 216°
2026-04-26 22:50 32.73352 -117.19146 34 ft 0 kts 216°
2026-04-26 22:53 32.73346 -117.19151 34 ft 2 kts 216°
2026-04-26 22:54 32.73326 -117.19178 34 ft 6 kts 245°
2026-04-26 22:54 32.73318 -117.19245 34 ft 10 kts 278°
2026-04-26 22:54 32.73344 -117.19362 34 ft 16 kts 285°
2026-04-26 22:54 32.73373 -117.19488 34 ft 15 kts 285°
2026-04-26 22:55 32.73401 -117.19613 34 ft 15 kts 285°
2026-04-26 22:55 32.73426 -117.19730 34 ft 14 kts 284°
2026-04-26 22:55 32.73451 -117.19843 34 ft 13 kts 284°
2026-04-26 22:55 32.73474 -117.19951 34 ft 13 kts 284°
2026-04-26 22:56 32.73497 -117.20054 34 ft 12 kts 285°
2026-04-26 22:56 32.73521 -117.20155 34 ft 12 kts 285°
2026-04-26 22:56 32.73543 -117.20253 34 ft 12 kts 285°
2026-04-26 22:56 32.73565 -117.20349 34 ft 11 kts 285°
2026-04-26 22:57 32.73558 -117.20440 34 ft 11 kts 235°
2026-04-26 22:57 32.73508 -117.20512 34 ft 11 kts 227°
2026-04-26 22:57 32.73440 -117.20556 34 ft 11 kts 190°
2026-04-26 22:57 32.73362 -117.20560 34 ft 11 kts 173°
2026-04-26 22:58 32.73288 -117.20546 34 ft 9 kts 170°
2026-04-26 22:58 32.73252 -117.20539 34 ft 0 kts 171°
2026-04-26 22:58 32.73251 -117.20538 34 ft 0 kts 171°